Time,TemperatureF,DewpointF,PressureIn,WindDirection,WindDirectionDegrees,WindSpeedMPH,WindSpeedGustMPH,Humidity,HourlyPrecipIn,Conditions,Clouds,dailyrainin,SolarRadiationWatts/m^2,SoftwareType,DateUTC
2016-02-08 00:00:00,42.2,30.9,29.75,SSW,192,0.0,0.0,64,0.00,,,0.00,0,HR-IXPWINDi_r2_v1.2.,2016-02-08 05:00:00,
2016-02-08 00:05:00,42.4,31.1,29.75,SSW,207,0.0,0.0,64,0.00,,,0.00,0,HR-IXPWINDi_r2_v1.2.,2016-02-08 05:05:00,
2016-02-08 00:10:00,42.4,31.1,29.74,SW,215,0.0,0.0,64,0.00,,,0.00,0,HR-IXPWINDi_r2_v1.2.,2016-02-08 05:10:00,
2016-02-08 00:15:00,42.2,31.6,29.74,SSW,212,0.0,0.0,66,0.00,,,0.00,0,HR-IXPWINDi_r2_v1.2.,2016-02-08 05:15:00,
2016-02-08 00:20:00,42.0,31.4,29.74,SSW,212,0.0,0.0,66,0.00,,,0.00,0,HR-IXPWINDi_r2_v1.2.,2016-02-08 05:20:00,
2016-02-08 00:25:00,42.1,31.5,29.74,SSW,192,0.0,0.0,66,0.00,,,0.00,0,HR-IXPWINDi_r2_v1.2.,2016-02-08 05:25:00,
2016-02-08 00:30:00,42.2,31.6,29.74,SSW,192,0.0,0.0,66,0.00,,,0.00,0,HR-IXPWINDi_r2_v1.2.,2016-02-08 05:30:00,
2016-02-08 00:35:00,42.1,32.6,29.73,South,190,0.0,0.0,69,0.00,,,0.00,0,HR-IXPWINDi_r2_v1.2.,2016-02-08 05:35:00,
2016-02-08 00:40:00,41.8,32.3,29.73,South,181,0.0,0.0,69,0.00,,,0.00,0,HR-IXPWINDi_r2_v1.2.,2016-02-08 05:40:00,
2016-02-08 00:45:00,41.6,32.5,29.73,SSW,197,0.0,0.0,70,0.00,,,0.00,0,HR-IXPWINDi_r2_v1.2.,2016-02-08 05:45:00,
2016-02-08 00:50:00,41.6,32.2,29.73,SSW,201,0.0,0.0,69,0.00,,,0.00,0,HR-IXPWINDi_r2_v1.2.,2016-02-08 05:50:00,
2016-02-08 00:55:00,41.6,32.2,29.73,SSW,201,0.0,0.0,69,0.00,,,0.00,0,HR-IXPWINDi_r2_v1.2.,2016-02-08 05:55:00,
2016-02-08 01:00:00,42.8,31.8,29.72,SSW,211,0.0,0.0,65,0.00,,,0.00,0,HR-IXPWINDi_r2_v1.2.,2016-02-08 06:00:00,
2016-02-08 01:05:00,42.7,31.7,29.72,SSW,211,0.0,0.0,65,0.00,,,0.00,0,HR-IXPWINDi_r2_v1.2.,2016-02-08 06:05:00,
2016-02-08 01:10:00,42.6,31.6,29.71,SSW,211,0.0,0.0,65,0.00,,,0.00,0,HR-IXPWINDi_r2_v1.2.,2016-02-08 06:10:00,
2016-02-08 01:15:00,42.1,32.3,29.72,SW,219,0.0,0.0,68,0.00,,,0.00,0,HR-IXPWINDi_r2_v1.2.,2016-02-08 06:15:00,
2016-02-08 01:25:00,42.9,32.3,29.72,SW,227,0.0,0.0,66,0.00,,,0.00,0,HR-IXPWINDi_r2_v1.2.,2016-02-08 06:25:00,
2016-02-08 01:30:00,43.1,32.5,29.71,SW,223,0.0,0.0,66,0.00,,,0.00,0,HR-IXPWINDi_r2_v1.2.,2016-02-08 06:30:00,
2016-02-08 01:35:00,43.5,32.5,29.71,SW,234,0.0,0.0,65,0.00,,,0.00,0,HR-IXPWINDi_r2_v1.2.,2016-02-08 06:35:00,
2016-02-08 01:40:00,43.4,32.4,29.71,SW,229,0.0,0.0,65,0.00,,,0.00,0,HR-IXPWINDi_r2_v1.2.,2016-02-08 06:40:00,
2016-02-08 01:45:00,43.1,32.5,29.70,SW,219,0.0,0.0,66,0.00,,,0.00,0,HR-IXPWINDi_r2_v1.2.,2016-02-08 06:45:00,
2016-02-08 01:50:00,43.0,32.8,29.70,SW,224,0.0,0.0,67,0.00,,,0.00,0,HR-IXPWINDi_r2_v1.2.,2016-02-08 06:50:00,
2016-02-08 01:55:00,42.7,32.5,29.70,SW,224,0.0,0.0,67,0.00,,,0.00,0,HR-IXPWINDi_r2_v1.2.,2016-02-08 06:55:00,
2016-02-08 02:00:00,42.5,32.7,29.70,SW,224,0.0,0.0,68,0.00,,,0.00,0,HR-IXPWINDi_r2_v1.2.,2016-02-08 07:00:00,
2016-02-08 02:05:00,42.4,32.2,29.70,SW,236,0.0,0.0,67,0.00,,,0.00,0,HR-IXPWINDi_r2_v1.2.,2016-02-08 07:05:00,
2016-02-08 02:10:00,42.4,32.2,29.69,SSW,205,0.0,0.0,67,0.00,,,0.00,0,HR-IXPWINDi_r2_v1.2.,2016-02-08 07:10:00,
2016-02-08 02:20:00,42.5,31.9,29.69,SSW,205,0.0,0.0,66,0.00,,,0.00,0,HR-IXPWINDi_r2_v1.2.,2016-02-08 07:20:00,
2016-02-08 02:25:00,42.6,32.0,29.68,SSW,205,0.0,0.0,66,0.00,,,0.00,0,HR-IXPWINDi_r2_v1.2.,2016-02-08 07:25:00,
2016-02-08 02:30:00,42.6,32.0,29.68,SSW,205,0.0,0.0,66,0.00,,,0.00,0,HR-IXPWINDi_r2_v1.2.,2016-02-08 07:30:00,
2016-02-08 02:35:00,42.3,32.5,29.69,South,178,0.0,0.0,68,0.00,,,0.00,0,HR-IXPWINDi_r2_v1.2.,2016-02-08 07:35:00,
2016-02-08 02:40:00,42.3,31.7,29.68,SW,235,0.0,0.0,66,0.00,,,0.00,0,HR-IXPWINDi_r2_v1.2.,2016-02-08 07:40:00,
2016-02-08 02:45:00,42.3,31.3,29.68,WSW,238,0.0,0.0,65,0.00,,,0.00,0,HR-IXPWINDi_r2_v1.2.,2016-02-08 07:45:00,
2016-02-08 02:50:00,42.0,32.2,29.68,WSW,243,0.0,0.0,68,0.00,,,0.00,0,HR-IXPWINDi_r2_v1.2.,2016-02-08 07:50:00,
2016-02-08 03:00:00,41.4,32.0,29.68,WSW,243,0.0,0.0,69,0.00,,,0.00,0,HR-IXPWINDi_r2_v1.2.,2016-02-08 08:00:00,
2016-02-08 03:05:00,41.4,31.6,29.67,WSW,237,0.0,0.0,68,0.00,,,0.00,0,HR-IXPWINDi_r2_v1.2.,2016-02-08 08:05:00,
2016-02-08 03:10:00,41.7,31.5,29.67,WSW,250,0.0,0.0,67,0.00,,,0.00,0,HR-IXPWINDi_r2_v1.2.,2016-02-08 08:10:00,
2016-02-08 03:15:00,41.5,32.1,29.67,WSW,256,0.0,0.0,69,0.00,,,0.00,0,HR-IXPWINDi_r2_v1.2.,2016-02-08 08:15:00,
2016-02-08 03:20:00,41.1,32.4,29.67,SW,232,0.0,0.0,71,0.00,,,0.00,0,HR-IXPWINDi_r2_v1.2.,2016-02-08 08:20:00,
2016-02-08 03:25:00,40.8,32.4,29.67,SW,233,0.0,0.0,72,0.00,,,0.00,0,HR-IXPWINDi_r2_v1.2.,2016-02-08 08:25:00,
2016-02-08 03:30:00,40.5,32.2,29.67,WSW,258,0.0,0.0,72,0.00,,,0.00,0,HR-IXPWINDi_r2_v1.2.,2016-02-08 08:30:00,
2016-02-08 03:35:00,40.5,32.5,29.67,WSW,255,0.0,0.0,73,0.00,,,0.00,0,HR-IXPWINDi_r2_v1.2.,2016-02-08 08:35:00,
2016-02-08 03:40:00,40.4,32.7,29.67,West,267,0.0,0.0,74,0.00,,,0.00,0,HR-IXPWINDi_r2_v1.2.,2016-02-08 08:40:00,
2016-02-08 03:45:00,40.1,33.4,29.67,WSW,258,0.0,0.0,77,0.00,,,0.00,0,HR-IXPWINDi_r2_v1.2.,2016-02-08 08:45:00,
2016-02-08 03:50:00,39.5,33.5,29.67,WSW,245,0.0,0.0,79,0.00,,,0.00,0,HR-IXPWINDi_r2_v1.2.,2016-02-08 08:50:00,
2016-02-08 04:00:00,39.4,33.4,29.66,SW,234,0.0,0.0,79,0.00,,,0.00,0,HR-IXPWINDi_r2_v1.2.,2016-02-08 09:00:00,
2016-02-08 04:05:00,39.3,33.6,29.66,SW,234,0.0,0.0,80,0.00,,,0.00,0,HR-IXPWINDi_r2_v1.2.,2016-02-08 09:05:00,
2016-02-08 04:10:00,39.1,34.0,29.65,SW,234,0.0,0.0,82,0.00,,,0.00,0,HR-IXPWINDi_r2_v1.2.,2016-02-08 09:10:00,
2016-02-08 04:15:00,38.9,34.1,29.65,SW,234,0.0,0.0,83,0.00,,,0.00,0,HR-IXPWINDi_r2_v1.2.,2016-02-08 09:15:00,
2016-02-08 04:20:00,38.8,34.3,29.65,SW,234,0.0,0.0,84,0.00,,,0.00,0,HR-IXPWINDi_r2_v1.2.,2016-02-08 09:20:00,
2016-02-08 04:25:00,38.6,34.4,29.65,SW,234,0.0,0.0,85,0.00,,,0.00,0,HR-IXPWINDi_r2_v1.2.,2016-02-08 09:25:00,
2016-02-08 04:30:00,38.4,34.5,29.64,SW,234,0.0,0.0,86,0.00,,,0.00,0,HR-IXPWINDi_r2_v1.2.,2016-02-08 09:30:00,
2016-02-08 04:35:00,38.2,34.6,29.65,SW,234,0.0,0.0,87,0.00,,,0.00,0,HR-IXPWINDi_r2_v1.2.,2016-02-08 09:35:00,
2016-02-08 04:40:00,38.1,34.5,29.64,SW,234,0.0,0.0,87,0.00,,,0.00,0,HR-IXPWINDi_r2_v1.2.,2016-02-08 09:40:00,
2016-02-08 04:45:00,38.0,34.7,29.65,SW,234,0.0,0.0,88,0.00,,,0.00,0,HR-IXPWINDi_r2_v1.2.,2016-02-08 09:45:00,
2016-02-08 04:50:00,37.9,34.6,29.64,SW,234,0.0,0.0,88,0.00,,,0.00,0,HR-IXPWINDi_r2_v1.2.,2016-02-08 09:50:00,
2016-02-08 04:55:00,37.9,34.9,29.64,SW,234,0.0,0.0,89,0.00,,,0.00,0,HR-IXPWINDi_r2_v1.2.,2016-02-08 09:55:00,
2016-02-08 05:05:00,37.7,35.0,29.65,SW,234,0.0,0.0,90,0.00,,,0.00,0,HR-IXPWINDi_r2_v1.2.,2016-02-08 10:05:00,
2016-02-08 05:10:00,37.6,34.9,29.65,SW,234,0.0,0.0,90,0.00,,,0.00,0,HR-IXPWINDi_r2_v1.2.,2016-02-08 10:10:00,
2016-02-08 05:20:00,37.3,34.6,29.65,WSW,257,0.0,0.0,90,0.00,,,0.00,0,HR-IXPWINDi_r2_v1.2.,2016-02-08 10:20:00,
2016-02-08 05:25:00,37.1,34.7,29.64,West,263,0.0,0.0,91,0.00,,,0.00,0,HR-IXPWINDi_r2_v1.2.,2016-02-08 10:25:00,
2016-02-08 05:30:00,37.0,34.6,29.64,West,263,0.0,0.0,91,0.00,,,0.00,0,HR-IXPWINDi_r2_v1.2.,2016-02-08 10:30:00,
2016-02-08 05:35:00,36.7,34.3,29.64,West,263,0.0,0.0,91,0.00,,,0.00,0,HR-IXPWINDi_r2_v1.2.,2016-02-08 10:35:00,
2016-02-08 05:40:00,36.5,34.1,29.64,West,280,0.0,0.0,91,0.00,,,0.00,0,HR-IXPWINDi_r2_v1.2.,2016-02-08 10:40:00,
2016-02-08 05:45:00,36.3,33.9,29.64,West,280,0.0,0.0,91,0.00,,,0.00,0,HR-IXPWINDi_r2_v1.2.,2016-02-08 10:45:00,
2016-02-08 05:50:00,36.1,34.0,29.65,West,280,0.0,0.0,92,0.00,,,0.00,0,HR-IXPWINDi_r2_v1.2.,2016-02-08 10:50:00,
2016-02-08 05:55:00,36.0,33.9,29.65,West,280,0.0,0.0,92,0.00,,,0.00,0,HR-IXPWINDi_r2_v1.2.,2016-02-08 10:55:00,
2016-02-08 06:00:00,35.7,33.6,29.64,West,280,0.0,0.0,92,0.00,,,0.00,0,HR-IXPWINDi_r2_v1.2.,2016-02-08 11:00:00,
2016-02-08 06:05:00,35.4,33.3,29.64,West,280,0.0,0.0,92,0.00,,,0.00,0,HR-IXPWINDi_r2_v1.2.,2016-02-08 11:05:00,
2016-02-08 06:10:00,35.0,32.9,29.64,West,280,0.0,0.0,92,0.00,,,0.00,0,HR-IXPWINDi_r2_v1.2.,2016-02-08 11:10:00,
2016-02-08 06:15:00,34.6,32.5,29.64,West,280,0.0,0.0,92,0.00,,,0.00,0,HR-IXPWINDi_r2_v1.2.,2016-02-08 11:15:00,
2016-02-08 06:20:00,34.3,32.5,29.64,West,280,0.0,0.0,93,0.00,,,0.00,0,HR-IXPWINDi_r2_v1.2.,2016-02-08 11:20:00,
2016-02-08 06:25:00,34.1,32.3,29.64,West,280,0.0,0.0,93,0.00,,,0.00,0,HR-IXPWINDi_r2_v1.2.,2016-02-08 11:25:00,
2016-02-08 06:30:00,33.8,32.0,29.64,West,280,0.0,0.0,93,0.00,,,0.00,0,HR-IXPWINDi_r2_v1.2.,2016-02-08 11:30:00,
2016-02-08 06:35:00,33.7,32.1,29.64,West,280,0.0,0.0,94,0.00,,,0.00,0,HR-IXPWINDi_r2_v1.2.,2016-02-08 11:35:00,
2016-02-08 06:40:00,33.6,32.0,29.64,West,280,0.0,0.0,94,0.00,,,0.00,0,HR-IXPWINDi_r2_v1.2.,2016-02-08 11:40:00,
2016-02-08 06:50:00,33.6,32.3,29.64,West,280,0.0,0.0,95,0.00,,,0.00,0,HR-IXPWINDi_r2_v1.2.,2016-02-08 11:50:00,
2016-02-08 06:55:00,33.5,32.2,29.64,West,280,0.0,0.0,95,0.00,,,0.00,0,HR-IXPWINDi_r2_v1.2.,2016-02-08 11:55:00,
2016-02-08 07:00:00,33.6,32.3,29.64,West,280,0.0,0.0,95,0.00,,,0.00,0,HR-IXPWINDi_r2_v1.2.,2016-02-08 12:00:00,
2016-02-08 07:05:00,33.7,32.4,29.63,West,280,0.0,0.0,95,0.00,,,0.00,0,HR-IXPWINDi_r2_v1.2.,2016-02-08 12:05:00,
2016-02-08 07:10:00,33.8,32.5,29.63,West,280,0.0,0.0,95,0.00,,,0.00,0,HR-IXPWINDi_r2_v1.2.,2016-02-08 12:10:00,
2016-02-08 07:15:00,33.8,32.5,29.63,West,280,0.0,0.0,95,0.00,,,0.00,0,HR-IXPWINDi_r2_v1.2.,2016-02-08 12:15:00,
2016-02-08 07:20:00,33.9,32.8,29.63,West,280,0.0,0.0,96,0.00,,,0.00,0,HR-IXPWINDi_r2_v1.2.,2016-02-08 12:20:00,
2016-02-08 07:25:00,33.9,32.8,29.63,West,280,0.0,0.0,96,0.00,,,0.00,0,HR-IXPWINDi_r2_v1.2.,2016-02-08 12:25:00,
2016-02-08 07:35:00,33.9,32.8,29.62,West,280,0.0,0.0,96,0.00,,,0.00,0,HR-IXPWINDi_r2_v1.2.,2016-02-08 12:35:00,
2016-02-08 07:40:00,34.0,32.9,29.62,West,280,0.0,0.0,96,0.00,,,0.00,0,HR-IXPWINDi_r2_v1.2.,2016-02-08 12:40:00,
2016-02-08 07:45:00,33.9,32.8,29.62,West,280,0.0,0.0,96,0.00,,,0.00,0,HR-IXPWINDi_r2_v1.2.,2016-02-08 12:45:00,
2016-02-08 07:50:00,33.9,32.8,29.62,West,280,0.0,0.0,96,0.00,,,0.00,5,HR-IXPWINDi_r2_v1.2.,2016-02-08 12:50:00,
2016-02-08 07:55:00,33.9,32.8,29.62,West,280,0.0,0.0,96,0.00,,,0.00,7,HR-IXPWINDi_r2_v1.2.,2016-02-08 12:55:00,
2016-02-08 08:01:00,33.9,32.8,29.62,West,280,0.0,0.0,96,0.00,,,0.00,9,HR-IXPWINDi_r2_v1.2.,2016-02-08 13:01:00,
2016-02-08 08:06:00,33.9,32.8,29.62,West,280,0.0,0.0,96,0.00,,,0.00,11,HR-IXPWINDi_r2_v1.2.,2016-02-08 13:06:00,
2016-02-08 08:11:00,33.9,32.8,29.62,West,280,0.0,0.0,96,0.00,,,0.00,14,HR-IXPWINDi_r2_v1.2.,2016-02-08 13:11:00,
2016-02-08 08:16:00,33.9,32.8,29.62,West,280,0.0,0.0,96,0.00,,,0.00,21,HR-IXPWINDi_r2_v1.2.,2016-02-08 13:16:00,
2016-02-08 08:21:00,33.9,32.8,29.62,West,280,0.0,0.0,96,0.00,,,0.00,26,HR-IXPWINDi_r2_v1.2.,2016-02-08 13:21:00,
2016-02-08 08:26:00,33.9,32.8,29.62,West,280,0.0,0.0,96,0.00,,,0.00,32,HR-IXPWINDi_r2_v1.2.,2016-02-08 13:26:00,
2016-02-08 08:31:00,34.0,32.9,29.62,West,280,0.0,0.0,96,0.00,,,0.00,33,HR-IXPWINDi_r2_v1.2.,2016-02-08 13:31:00,
2016-02-08 08:41:00,34.4,33.6,29.62,West,280,0.0,0.0,97,0.00,,,0.00,37,HR-IXPWINDi_r2_v1.2.,2016-02-08 13:41:00,
2016-02-08 08:46:00,34.6,33.8,29.61,West,280,0.0,0.0,97,0.00,,,0.00,40,HR-IXPWINDi_r2_v1.2.,2016-02-08 13:46:00,
2016-02-08 08:51:00,34.8,34.0,29.61,West,280,0.0,0.0,97,0.00,,,0.00,51,HR-IXPWINDi_r2_v1.2.,2016-02-08 13:51:00,
2016-02-08 08:56:00,35.0,34.2,29.61,West,278,0.0,0.0,97,0.00,,,0.00,62,HR-IXPWINDi_r2_v1.2.,2016-02-08 13:56:00,
2016-02-08 09:01:00,35.1,34.3,29.62,WSW,252,0.0,0.0,97,0.00,,,0.00,63,HR-IXPWINDi_r2_v1.2.,2016-02-08 14:01:00,
2016-02-08 09:11:00,35.5,34.7,29.62,SW,217,0.0,0.0,97,0.00,,,0.00,218,HR-IXPWINDi_r2_v1.2.,2016-02-08 14:11:00,
2016-02-08 09:16:00,35.6,34.8,29.62,SW,217,0.0,0.0,97,0.00,,,0.00,135,HR-IXPWINDi_r2_v1.2.,2016-02-08 14:16:00,
2016-02-08 09:21:00,35.6,34.5,29.62,SW,221,2.0,6.0,96,0.00,,,0.00,127,HR-IXPWINDi_r2_v1.2.,2016-02-08 14:21:00,
2016-02-08 09:26:00,35.6,34.5,29.61,SW,221,2.0,6.0,96,0.00,,,0.00,127,HR-IXPWINDi_r2_v1.2.,2016-02-08 14:26:00,
2016-02-08 09:31:00,35.7,34.6,29.61,SW,224,0.0,2.0,96,0.00,,,0.00,40,HR-IXPWINDi_r2_v1.2.,2016-02-08 14:31:00,
2016-02-08 09:36:00,35.8,34.7,29.61,SW,224,0.0,2.0,96,0.00,,,0.00,33,HR-IXPWINDi_r2_v1.2.,2016-02-08 14:36:00,
2016-02-08 09:41:00,35.9,34.8,29.61,SW,224,0.0,0.0,96,0.00,,,0.00,30,HR-IXPWINDi_r2_v1.2.,2016-02-08 14:41:00,
2016-02-08 09:51:00,35.9,34.6,29.61,SW,224,0.0,0.0,95,0.00,,,0.00,40,HR-IXPWINDi_r2_v1.2.,2016-02-08 14:51:00,
2016-02-08 09:56:00,35.9,34.8,29.61,SW,224,0.0,0.0,96,0.00,,,0.00,37,HR-IXPWINDi_r2_v1.2.,2016-02-08 14:56:00,
2016-02-08 10:01:00,35.9,34.6,29.61,SW,224,0.0,0.0,95,0.00,,,0.00,21,HR-IXPWINDi_r2_v1.2.,2016-02-08 15:01:00,
2016-02-08 10:06:00,36.1,35.0,29.61,SW,224,0.0,0.0,96,0.00,,,0.00,39,HR-IXPWINDi_r2_v1.2.,2016-02-08 15:06:00,
2016-02-08 10:11:00,36.1,34.8,29.60,SW,224,0.0,0.0,95,0.00,,,0.00,95,HR-IXPWINDi_r2_v1.2.,2016-02-08 15:11:00,
2016-02-08 10:16:00,36.3,35.2,29.60,SW,224,0.0,0.0,96,0.00,,,0.00,100,HR-IXPWINDi_r2_v1.2.,2016-02-08 15:16:00,
2016-02-08 10:21:00,36.4,35.1,29.60,SW,224,0.0,0.0,95,0.00,,,0.00,67,HR-IXPWINDi_r2_v1.2.,2016-02-08 15:21:00,
2016-02-08 10:26:00,36.5,35.2,29.60,SW,224,0.0,0.0,95,0.00,,,0.00,40,HR-IXPWINDi_r2_v1.2.,2016-02-08 15:26:00,
2016-02-08 10:31:00,36.6,35.3,29.60,SW,225,0.0,0.0,95,0.00,,,0.00,93,HR-IXPWINDi_r2_v1.2.,2016-02-08 15:31:00,
2016-02-08 10:36:00,36.8,35.5,29.60,SW,226,0.0,0.0,95,0.00,,,0.00,98,HR-IXPWINDi_r2_v1.2.,2016-02-08 15:36:00,
2016-02-08 10:41:00,37.1,35.8,29.60,SW,228,0.0,0.0,95,0.00,,,0.00,95,HR-IXPWINDi_r2_v1.2.,2016-02-08 15:41:00,
2016-02-08 10:46:00,37.3,35.7,29.60,WSW,246,0.0,0.0,94,0.00,,,0.00,83,HR-IXPWINDi_r2_v1.2.,2016-02-08 15:46:00,
2016-02-08 10:51:00,37.3,35.4,29.60,WSW,241,0.0,0.0,93,0.00,,,0.00,56,HR-IXPWINDi_r2_v1.2.,2016-02-08 15:51:00,
2016-02-08 10:56:00,37.1,35.2,29.60,WSW,241,0.0,0.0,93,0.00,,,0.00,23,HR-IXPWINDi_r2_v1.2.,2016-02-08 15:56:00,
2016-02-08 11:01:00,37.0,35.1,29.60,WSW,240,0.0,0.0,93,0.00,,,0.00,21,HR-IXPWINDi_r2_v1.2.,2016-02-08 16:01:00,
2016-02-08 11:06:00,36.9,35.3,29.60,WSW,240,0.0,0.0,94,0.00,,,0.00,18,HR-IXPWINDi_r2_v1.2.,2016-02-08 16:06:00,
2016-02-08 11:11:00,36.8,34.9,29.61,WSW,240,0.0,0.0,93,0.00,,,0.00,11,HR-IXPWINDi_r2_v1.2.,2016-02-08 16:11:00,
2016-02-08 11:16:00,35.7,33.8,29.61,SW,224,0.0,0.0,93,0.00,,,0.00,7,HR-IXPWINDi_r2_v1.2.,2016-02-08 16:16:00,
2016-02-08 11:21:00,34.5,32.9,29.61,SW,227,0.0,0.0,94,0.00,,,0.00,7,HR-IXPWINDi_r2_v1.2.,2016-02-08 16:21:00,
2016-02-08 11:26:00,34.1,32.8,29.61,West,259,0.0,0.0,95,0.00,,,0.00,21,HR-IXPWINDi_r2_v1.2.,2016-02-08 16:26:00,
2016-02-08 11:31:00,33.5,32.2,29.61,WSW,256,4.0,9.0,95,0.00,,,0.00,28,HR-IXPWINDi_r2_v1.2.,2016-02-08 16:31:00,
2016-02-08 11:36:00,33.3,32.0,29.61,WSW,238,7.0,13.0,95,0.00,,,0.00,40,HR-IXPWINDi_r2_v1.2.,2016-02-08 16:36:00,
2016-02-08 11:41:00,33.1,32.1,29.61,WSW,255,8.0,13.0,96,0.00,,,0.00,40,HR-IXPWINDi_r2_v1.2.,2016-02-08 16:41:00,
2016-02-08 11:46:00,32.9,31.9,29.61,WSW,250,0.0,13.0,96,0.00,,,0.00,33,HR-IXPWINDi_r2_v1.2.,2016-02-08 16:46:00,
2016-02-08 11:51:00,32.9,31.9,29.61,WSW,248,0.0,10.0,96,0.00,,,0.00,44,HR-IXPWINDi_r2_v1.2.,2016-02-08 16:51:00,
2016-02-08 11:56:00,32.9,31.9,29.60,West,259,0.0,0.0,96,0.00,,,0.00,76,HR-IXPWINDi_r2_v1.2.,2016-02-08 16:56:00,
2016-02-08 12:01:00,33.0,32.2,29.60,West,259,0.0,0.0,97,0.00,,,0.00,225,HR-IXPWINDi_r2_v1.2.,2016-02-08 17:01:00,
2016-02-08 12:06:00,33.2,32.4,29.61,West,259,0.0,0.0,97,0.00,,,0.00,206,HR-IXPWINDi_r2_v1.2.,2016-02-08 17:06:00,
2016-02-08 12:11:00,33.2,32.4,29.61,WSW,258,0.0,0.0,97,0.00,,,0.00,125,HR-IXPWINDi_r2_v1.2.,2016-02-08 17:11:00,
2016-02-08 12:16:00,33.2,32.4,29.61,WSW,255,0.0,0.0,97,0.00,,,0.00,120,HR-IXPWINDi_r2_v1.2.,2016-02-08 17:16:00,
2016-02-08 12:21:00,33.2,32.4,29.60,WSW,255,0.0,0.0,97,0.00,,,0.00,160,HR-IXPWINDi_r2_v1.2.,2016-02-08 17:21:00,
2016-02-08 12:26:00,33.2,32.4,29.60,WSW,255,0.0,0.0,97,0.00,,,0.00,127,HR-IXPWINDi_r2_v1.2.,2016-02-08 17:26:00,
2016-02-08 12:31:00,33.3,32.5,29.60,WSW,255,0.0,0.0,97,0.00,,,0.00,137,HR-IXPWINDi_r2_v1.2.,2016-02-08 17:31:00,
2016-02-08 12:36:00,33.4,32.6,29.60,WSW,255,0.0,0.0,97,0.00,,,0.00,91,HR-IXPWINDi_r2_v1.2.,2016-02-08 17:36:00,
2016-02-08 12:41:00,33.5,32.7,29.60,WSW,244,0.0,0.0,97,0.00,,,0.00,128,HR-IXPWINDi_r2_v1.2.,2016-02-08 17:41:00,
2016-02-08 12:46:00,33.7,32.9,29.60,WSW,244,0.0,0.0,97,0.00,,,0.00,127,HR-IXPWINDi_r2_v1.2.,2016-02-08 17:46:00,
2016-02-08 12:51:00,33.9,33.1,29.59,WSW,250,0.0,0.0,97,0.00,,,0.00,105,HR-IXPWINDi_r2_v1.2.,2016-02-08 17:51:00,
2016-02-08 12:56:00,34.1,33.3,29.59,WSW,258,0.0,0.0,97,0.00,,,0.00,186,HR-IXPWINDi_r2_v1.2.,2016-02-08 17:56:00,
2016-02-08 13:01:00,34.4,33.6,29.59,West,273,0.0,0.0,97,0.00,,,0.00,163,HR-IXPWINDi_r2_v1.2.,2016-02-08 18:01:00,
2016-02-08 13:06:00,34.5,33.7,29.59,WSW,246,0.0,0.0,97,0.00,,,0.00,109,HR-IXPWINDi_r2_v1.2.,2016-02-08 18:06:00,
2016-02-08 13:16:00,34.6,33.8,29.59,WSW,246,0.0,0.0,97,0.00,,,0.00,100,HR-IXPWINDi_r2_v1.2.,2016-02-08 18:16:00,
2016-02-08 13:21:00,34.6,33.8,29.59,WSW,246,0.0,0.0,97,0.00,,,0.00,97,HR-IXPWINDi_r2_v1.2.,2016-02-08 18:21:00,
2016-02-08 13:26:00,34.6,33.8,29.58,WSW,248,0.0,0.0,97,0.00,,,0.00,102,HR-IXPWINDi_r2_v1.2.,2016-02-08 18:26:00,
2016-02-08 13:31:00,34.7,33.9,29.58,WSW,258,0.0,0.0,97,0.00,,,0.00,109,HR-IXPWINDi_r2_v1.2.,2016-02-08 18:31:00,
2016-02-08 13:36:00,34.8,34.0,29.58,WSW,258,0.0,0.0,97,0.00,,,0.00,105,HR-IXPWINDi_r2_v1.2.,2016-02-08 18:36:00,
2016-02-08 13:41:00,34.9,34.1,29.58,WSW,258,0.0,0.0,97,0.00,,,0.00,102,HR-IXPWINDi_r2_v1.2.,2016-02-08 18:41:00,
2016-02-08 13:46:00,35.0,34.2,29.58,WSW,258,0.0,0.0,97,0.00,,,0.00,77,HR-IXPWINDi_r2_v1.2.,2016-02-08 18:46:00,
2016-02-08 13:51:00,35.1,34.3,29.58,WSW,258,0.0,0.0,97,0.00,,,0.00,95,HR-IXPWINDi_r2_v1.2.,2016-02-08 18:51:00,
2016-02-08 13:56:00,35.2,34.4,29.58,WSW,249,0.0,0.0,97,0.00,,,0.00,114,HR-IXPWINDi_r2_v1.2.,2016-02-08 18:56:00,
2016-02-08 14:01:00,35.5,34.7,29.58,WSW,246,0.0,0.0,97,0.00,,,0.00,114,HR-IXPWINDi_r2_v1.2.,2016-02-08 19:01:00,
2016-02-08 14:06:00,35.8,34.7,29.57,WSW,244,0.0,0.0,96,0.00,,,0.00,86,HR-IXPWINDi_r2_v1.2.,2016-02-08 19:06:00,
2016-02-08 14:11:00,36.0,34.9,29.58,WSW,244,0.0,0.0,96,0.00,,,0.00,176,HR-IXPWINDi_r2_v1.2.,2016-02-08 19:11:00,
2016-02-08 14:16:00,36.4,35.6,29.58,NNW,329,0.0,0.0,97,0.00,,,0.00,348,HR-IXPWINDi_r2_v1.2.,2016-02-08 19:16:00,
2016-02-08 14:21:00,36.6,35.5,29.58,NNW,331,0.0,0.0,96,0.00,,,0.00,174,HR-IXPWINDi_r2_v1.2.,2016-02-08 19:21:00,
2016-02-08 14:26:00,36.3,34.7,29.58,NNW,329,0.0,0.0,94,0.00,,,0.00,83,HR-IXPWINDi_r2_v1.2.,2016-02-08 19:26:00,
2016-02-08 14:31:00,36.1,34.5,29.58,NNW,330,0.0,0.0,94,0.00,,,0.00,39,HR-IXPWINDi_r2_v1.2.,2016-02-08 19:31:00,
2016-02-08 14:36:00,35.8,34.2,29.58,NNW,330,0.0,0.0,94,0.00,,,0.00,28,HR-IXPWINDi_r2_v1.2.,2016-02-08 19:36:00,
2016-02-08 14:41:00,35.7,34.1,29.58,NNW,340,0.0,0.0,94,0.00,,,0.00,12,HR-IXPWINDi_r2_v1.2.,2016-02-08 19:41:00,
2016-02-08 14:51:00,34.7,33.1,29.59,NNW,331,0.0,0.0,94,0.00,,,0.00,35,HR-IXPWINDi_r2_v1.2.,2016-02-08 19:51:00,
2016-02-08 14:56:00,34.3,32.7,29.59,NNW,331,0.0,0.0,94,0.00,,,0.00,120,HR-IXPWINDi_r2_v1.2.,2016-02-08 19:56:00,
2016-02-08 15:01:00,34.4,33.3,29.59,NNW,331,0.0,0.0,96,0.00,,,0.00,343,HR-IXPWINDi_r2_v1.2.,2016-02-08 20:01:00,
2016-02-08 15:06:00,36.2,35.6,29.58,NNW,331,0.0,0.0,98,0.00,,,0.00,464,HR-IXPWINDi_r2_v1.2.,2016-02-08 20:06:00,
2016-02-08 15:11:00,37.4,36.8,29.58,NNW,331,0.0,0.0,98,0.00,,,0.00,503,HR-IXPWINDi_r2_v1.2.,2016-02-08 20:11:00,
2016-02-08 15:16:00,39.2,38.6,29.58,NNW,331,0.0,0.0,98,0.00,,,0.00,573,HR-IXPWINDi_r2_v1.2.,2016-02-08 20:16:00,
2016-02-08 15:21:00,40.1,39.5,29.59,NNW,331,0.0,0.0,98,0.00,,,0.00,643,HR-IXPWINDi_r2_v1.2.,2016-02-08 20:21:00,
2016-02-08 15:26:00,40.2,39.6,29.59,NNW,331,0.0,0.0,98,0.00,,,0.00,278,HR-IXPWINDi_r2_v1.2.,2016-02-08 20:26:00,
2016-02-08 15:31:00,38.3,37.2,29.59,NNW,331,0.0,0.0,96,0.00,,,0.00,202,HR-IXPWINDi_r2_v1.2.,2016-02-08 20:31:00,
2016-02-08 15:36:00,37.0,35.1,29.59,NNW,331,0.0,0.0,93,0.00,,,0.00,148,HR-IXPWINDi_r2_v1.2.,2016-02-08 20:36:00,
2016-02-08 15:41:00,36.2,34.6,29.59,NNW,339,0.0,0.0,94,0.00,,,0.00,120,HR-IXPWINDi_r2_v1.2.,2016-02-08 20:41:00,
2016-02-08 15:46:00,35.8,34.2,29.59,NNW,339,0.0,0.0,94,0.00,,,0.00,79,HR-IXPWINDi_r2_v1.2.,2016-02-08 20:46:00,
2016-02-08 15:51:00,35.6,34.0,29.59,NNW,339,0.0,0.0,94,0.00,,,0.00,47,HR-IXPWINDi_r2_v1.2.,2016-02-08 20:51:00,
2016-02-08 15:56:00,35.5,33.9,29.59,NNW,339,0.0,0.0,94,0.00,,,0.00,51,HR-IXPWINDi_r2_v1.2.,2016-02-08 20:56:00,
2016-02-08 16:01:00,35.3,33.7,29.60,NNW,339,0.0,0.0,94,0.00,,,0.00,53,HR-IXPWINDi_r2_v1.2.,2016-02-08 21:01:00,
2016-02-08 16:06:00,35.2,33.6,29.60,NNW,339,0.0,0.0,94,0.00,,,0.00,93,HR-IXPWINDi_r2_v1.2.,2016-02-08 21:06:00,
2016-02-08 16:11:00,35.1,33.5,29.60,NNW,339,0.0,0.0,94,0.00,,,0.00,135,HR-IXPWINDi_r2_v1.2.,2016-02-08 21:11:00,
2016-02-08 16:16:00,35.1,33.8,29.60,NNW,340,0.0,0.0,95,0.00,,,0.00,213,HR-IXPWINDi_r2_v1.2.,2016-02-08 21:16:00,
2016-02-08 16:21:00,35.3,34.0,29.60,NNW,339,0.0,0.0,95,0.00,,,0.00,167,HR-IXPWINDi_r2_v1.2.,2016-02-08 21:21:00,
2016-02-08 16:26:00,35.6,34.3,29.60,NNW,339,0.0,0.0,95,0.00,,,0.00,153,HR-IXPWINDi_r2_v1.2.,2016-02-08 21:26:00,
2016-02-08 16:31:00,35.7,34.1,29.60,NNW,339,0.0,0.0,94,0.00,,,0.00,91,HR-IXPWINDi_r2_v1.2.,2016-02-08 21:31:00,
2016-02-08 16:36:00,35.9,34.6,29.60,NNW,339,0.0,0.0,95,0.00,,,0.00,74,HR-IXPWINDi_r2_v1.2.,2016-02-08 21:36:00,
2016-02-08 16:41:00,36.1,34.8,29.60,NNW,339,0.0,0.0,95,0.00,,,0.00,47,HR-IXPWINDi_r2_v1.2.,2016-02-08 21:41:00,
2016-02-08 16:46:00,36.1,34.5,29.60,NNW,339,0.0,0.0,94,0.00,,,0.00,40,HR-IXPWINDi_r2_v1.2.,2016-02-08 21:46:00,
2016-02-08 16:51:00,36.1,34.5,29.61,NNW,339,0.0,0.0,94,0.00,,,0.00,35,HR-IXPWINDi_r2_v1.2.,2016-02-08 21:51:00,
2016-02-08 16:56:00,36.1,34.5,29.61,NNW,339,0.0,0.0,94,0.00,,,0.00,26,HR-IXPWINDi_r2_v1.2.,2016-02-08 21:56:00,
2016-02-08 17:01:00,36.0,34.4,29.61,NNW,339,0.0,0.0,94,0.00,,,0.00,21,HR-IXPWINDi_r2_v1.2.,2016-02-08 22:01:00,
2016-02-08 17:06:00,36.0,34.4,29.61,NNW,339,0.0,0.0,94,0.00,,,0.00,25,HR-IXPWINDi_r2_v1.2.,2016-02-08 22:06:00,
2016-02-08 17:11:00,35.8,34.2,29.61,NNW,339,0.0,0.0,94,0.00,,,0.00,12,HR-IXPWINDi_r2_v1.2.,2016-02-08 22:11:00,
2016-02-08 17:16:00,35.8,34.2,29.61,NNW,339,0.0,0.0,94,0.00,,,0.00,11,HR-IXPWINDi_r2_v1.2.,2016-02-08 22:16:00,
2016-02-08 17:21:00,35.7,34.1,29.61,NNW,339,0.0,0.0,94,0.00,,,0.00,7,HR-IXPWINDi_r2_v1.2.,2016-02-08 22:21:00,
2016-02-08 17:26:00,35.3,33.4,29.61,NNW,339,0.0,0.0,93,0.00,,,0.00,7,HR-IXPWINDi_r2_v1.2.,2016-02-08 22:26:00,
2016-02-08 17:31:00,34.8,32.9,29.62,NNW,339,0.0,0.0,93,0.00,,,0.00,0,HR-IXPWINDi_r2_v1.2.,2016-02-08 22:31:00,
2016-02-08 17:36:00,34.2,32.4,29.62,NNW,340,0.0,0.0,93,0.00,,,0.00,0,HR-IXPWINDi_r2_v1.2.,2016-02-08 22:36:00,
2016-02-08 17:41:00,33.8,32.2,29.62,NNW,339,0.0,0.0,94,0.00,,,0.00,0,HR-IXPWINDi_r2_v1.2.,2016-02-08 22:41:00,
2016-02-08 17:46:00,33.5,31.9,29.62,NNW,339,0.0,0.0,94,0.00,,,0.00,0,HR-IXPWINDi_r2_v1.2.,2016-02-08 22:46:00,
2016-02-08 17:51:00,33.4,32.1,29.62,NNW,339,0.0,0.0,95,0.00,,,0.00,0,HR-IXPWINDi_r2_v1.2.,2016-02-08 22:51:00,
2016-02-08 17:56:00,33.2,31.9,29.62,NNW,339,0.0,0.0,95,0.00,,,0.00,0,HR-IXPWINDi_r2_v1.2.,2016-02-08 22:56:00,
2016-02-08 18:01:00,33.1,31.8,29.62,NNW,339,0.0,0.0,95,0.00,,,0.00,0,HR-IXPWINDi_r2_v1.2.,2016-02-08 23:01:00,
2016-02-08 18:06:00,33.1,32.1,29.62,NNW,339,0.0,0.0,96,0.00,,,0.00,0,HR-IXPWINDi_r2_v1.2.,2016-02-08 23:06:00,
2016-02-08 18:11:00,33.0,32.0,29.62,NNW,339,0.0,0.0,96,0.00,,,0.00,0,HR-IXPWINDi_r2_v1.2.,2016-02-08 23:11:00,
2016-02-08 18:16:00,33.0,32.0,29.63,NNW,339,0.0,0.0,96,0.00,,,0.00,0,HR-IXPWINDi_r2_v1.2.,2016-02-08 23:16:00,
2016-02-08 18:21:00,32.9,31.9,29.63,NNW,339,0.0,0.0,96,0.00,,,0.00,0,HR-IXPWINDi_r2_v1.2.,2016-02-08 23:21:00,
2016-02-08 18:26:00,33.0,32.0,29.63,NNW,337,0.0,0.0,96,0.00,,,0.00,0,HR-IXPWINDi_r2_v1.2.,2016-02-08 23:26:00,
2016-02-08 18:31:00,33.0,32.0,29.63,NW,308,0.0,0.0,96,0.00,,,0.00,0,HR-IXPWINDi_r2_v1.2.,2016-02-08 23:31:00,
2016-02-08 18:36:00,33.0,32.0,29.63,WNW,285,0.0,3.0,96,0.00,,,0.00,0,HR-IXPWINDi_r2_v1.2.,2016-02-08 23:36:00,
2016-02-08 18:41:00,33.0,32.0,29.63,WSW,253,0.0,4.0,96,0.00,,,0.00,0,HR-IXPWINDi_r2_v1.2.,2016-02-08 23:41:00,
2016-02-08 18:46:00,33.0,32.0,29.63,WSW,240,0.0,8.0,96,0.00,,,0.00,0,HR-IXPWINDi_r2_v1.2.,2016-02-08 23:46:00,
2016-02-08 18:51:00,32.8,31.8,29.63,WSW,247,0.0,8.0,96,0.00,,,0.00,0,HR-IXPWINDi_r2_v1.2.,2016-02-08 23:51:00,
2016-02-08 18:56:00,32.7,31.7,29.64,WSW,247,0.0,0.0,96,0.00,,,0.00,0,HR-IXPWINDi_r2_v1.2.,2016-02-08 23:56:00,
2016-02-08 19:01:00,32.7,31.9,29.64,WSW,247,0.0,0.0,97,0.00,,,0.00,0,HR-IXPWINDi_r2_v1.2.,2016-02-09 00:01:00,
2016-02-08 19:06:00,32.7,31.9,29.64,WSW,247,0.0,0.0,97,0.00,,,0.00,0,HR-IXPWINDi_r2_v1.2.,2016-02-09 00:06:00,
2016-02-08 19:11:00,32.7,31.9,29.64,WSW,247,0.0,0.0,97,0.00,,,0.00,0,HR-IXPWINDi_r2_v1.2.,2016-02-09 00:11:00,
2016-02-08 19:16:00,32.7,31.9,29.64,WSW,247,0.0,0.0,97,0.00,,,0.00,0,HR-IXPWINDi_r2_v1.2.,2016-02-09 00:16:00,
2016-02-08 19:21:00,32.7,31.9,29.64,WSW,247,0.0,0.0,97,0.00,,,0.00,0,HR-IXPWINDi_r2_v1.2.,2016-02-09 00:21:00,
2016-02-08 19:26:00,32.7,31.9,29.64,WSW,247,0.0,0.0,97,0.00,,,0.00,0,HR-IXPWINDi_r2_v1.2.,2016-02-09 00:26:00,
2016-02-08 19:31:00,32.7,31.9,29.64,WSW,247,0.0,0.0,97,0.00,,,0.00,0,HR-IXPWINDi_r2_v1.2.,2016-02-09 00:31:00,
2016-02-08 19:36:00,32.6,31.8,29.64,WSW,247,0.0,0.0,97,0.00,,,0.00,0,HR-IXPWINDi_r2_v1.2.,2016-02-09 00:36:00,
2016-02-08 19:41:00,32.6,31.8,29.64,WSW,247,0.0,0.0,97,0.00,,,0.00,0,HR-IXPWINDi_r2_v1.2.,2016-02-09 00:41:00,
2016-02-08 19:46:00,32.6,31.8,29.64,WSW,247,0.0,0.0,97,0.00,,,0.00,0,HR-IXPWINDi_r2_v1.2.,2016-02-09 00:46:00,
2016-02-08 19:51:00,32.6,31.8,29.64,WSW,247,0.0,0.0,97,0.00,,,0.00,0,HR-IXPWINDi_r2_v1.2.,2016-02-09 00:51:00,
2016-02-08 19:56:00,32.5,31.7,29.64,WSW,247,0.0,0.0,97,0.00,,,0.00,0,HR-IXPWINDi_r2_v1.2.,2016-02-09 00:56:00,
2016-02-08 20:01:00,32.3,31.5,29.64,WSW,247,0.0,0.0,97,0.00,,,0.00,0,HR-IXPWINDi_r2_v1.2.,2016-02-09 01:01:00,
2016-02-08 20:06:00,32.1,31.3,29.64,WSW,247,0.0,0.0,97,0.00,,,0.00,0,HR-IXPWINDi_r2_v1.2.,2016-02-09 01:06:00,
2016-02-08 20:11:00,32.1,31.3,29.64,WSW,247,0.0,0.0,97,0.00,,,0.00,0,HR-IXPWINDi_r2_v1.2.,2016-02-09 01:11:00,
2016-02-08 20:16:00,32.1,31.3,29.64,WSW,247,0.0,0.0,97,0.00,,,0.00,0,HR-IXPWINDi_r2_v1.2.,2016-02-09 01:16:00,
2016-02-08 20:21:00,32.1,31.3,29.64,WSW,247,0.0,0.0,97,0.00,,,0.00,0,HR-IXPWINDi_r2_v1.2.,2016-02-09 01:21:00,
2016-02-08 20:31:00,32.3,31.5,29.64,WSW,247,0.0,0.0,97,0.00,,,0.00,0,HR-IXPWINDi_r2_v1.2.,2016-02-09 01:31:00,
2016-02-08 20:36:00,32.4,31.6,29.64,WSW,247,0.0,0.0,97,0.00,,,0.00,0,HR-IXPWINDi_r2_v1.2.,2016-02-09 01:36:00,
2016-02-08 20:41:00,32.4,31.6,29.64,WSW,246,0.0,0.0,97,0.00,,,0.00,0,HR-IXPWINDi_r2_v1.2.,2016-02-09 01:41:00,
2016-02-08 20:46:00,32.2,31.4,29.64,WSW,246,0.0,0.0,97,0.00,,,0.00,0,HR-IXPWINDi_r2_v1.2.,2016-02-09 01:46:00,
2016-02-08 20:51:00,32.1,31.3,29.64,WSW,246,0.0,0.0,97,0.00,,,0.00,0,HR-IXPWINDi_r2_v1.2.,2016-02-09 01:51:00,
2016-02-08 20:56:00,31.3,30.5,29.64,WSW,256,0.0,0.0,97,0.00,,,0.00,0,HR-IXPWINDi_r2_v1.2.,2016-02-09 01:56:00,
2016-02-08 21:01:00,31.0,30.2,29.65,WSW,256,0.0,0.0,97,0.00,,,0.00,0,HR-IXPWINDi_r2_v1.2.,2016-02-09 02:01:00,
2016-02-08 21:06:00,30.8,30.0,29.64,WSW,256,0.0,0.0,97,0.00,,,0.00,0,HR-IXPWINDi_r2_v1.2.,2016-02-09 02:06:00,
2016-02-08 21:11:00,30.5,29.7,29.65,WNW,282,0.0,0.0,97,0.00,,,0.00,0,HR-IXPWINDi_r2_v1.2.,2016-02-09 02:11:00,
2016-02-08 21:16:00,30.3,29.5,29.65,WNW,282,0.0,0.0,97,0.00,,,0.00,0,HR-IXPWINDi_r2_v1.2.,2016-02-09 02:16:00,
2016-02-08 21:21:00,30.1,29.3,29.65,WNW,282,0.0,0.0,97,0.00,,,0.00,0,HR-IXPWINDi_r2_v1.2.,2016-02-09 02:21:00,
2016-02-08 21:31:00,29.8,29.0,29.65,West,263,0.0,0.0,97,0.00,,,0.00,0,HR-IXPWINDi_r2_v1.2.,2016-02-09 02:31:00,
2016-02-08 21:36:00,29.6,28.8,29.65,West,263,0.0,0.0,97,0.00,,,0.00,0,HR-IXPWINDi_r2_v1.2.,2016-02-09 02:36:00,
2016-02-08 21:41:00,29.5,28.7,29.65,WNW,296,0.0,0.0,97,0.00,,,0.00,0,HR-IXPWINDi_r2_v1.2.,2016-02-09 02:41:00,
2016-02-08 21:46:00,29.4,28.6,29.65,WNW,291,0.0,0.0,97,0.00,,,0.00,0,HR-IXPWINDi_r2_v1.2.,2016-02-09 02:46:00,
2016-02-08 21:56:00,29.1,28.3,29.66,WNW,291,0.0,0.0,97,0.00,,,0.00,0,HR-IXPWINDi_r2_v1.2.,2016-02-09 02:56:00,
2016-02-08 22:01:00,29.1,28.3,29.66,WNW,291,0.0,0.0,97,0.00,,,0.00,0,HR-IXPWINDi_r2_v1.2.,2016-02-09 03:01:00,
2016-02-08 22:06:00,29.0,28.2,29.66,WNW,291,0.0,0.0,97,0.00,,,0.00,0,HR-IXPWINDi_r2_v1.2.,2016-02-09 03:06:00,
2016-02-08 22:16:00,28.7,27.9,29.66,WNW,291,0.0,0.0,97,0.00,,,0.00,0,HR-IXPWINDi_r2_v1.2.,2016-02-09 03:16:00,
2016-02-08 22:21:00,28.6,27.8,29.66,WNW,291,0.0,0.0,97,0.00,,,0.00,0,HR-IXPWINDi_r2_v1.2.,2016-02-09 03:21:00,
2016-02-08 22:26:00,28.5,27.7,29.66,WNW,291,0.0,0.0,97,0.00,,,0.00,0,HR-IXPWINDi_r2_v1.2.,2016-02-09 03:26:00,
2016-02-08 22:31:00,28.4,27.6,29.66,WNW,291,0.0,0.0,97,0.00,,,0.00,0,HR-IXPWINDi_r2_v1.2.,2016-02-09 03:31:00,
2016-02-08 22:36:00,28.3,27.5,29.66,WNW,291,0.0,0.0,97,0.00,,,0.00,0,HR-IXPWINDi_r2_v1.2.,2016-02-09 03:36:00,
2016-02-08 22:41:00,28.1,27.3,29.66,WNW,291,0.0,0.0,97,0.00,,,0.00,0,HR-IXPWINDi_r2_v1.2.,2016-02-09 03:41:00,
2016-02-08 22:51:00,27.9,27.1,29.66,WNW,291,0.0,0.0,97,0.00,,,0.00,0,HR-IXPWINDi_r2_v1.2.,2016-02-09 03:51:00,
2016-02-08 23:01:00,27.6,26.6,29.66,WNW,290,0.0,0.0,96,0.00,,,0.00,0,HR-IXPWINDi_r2_v1.2.,2016-02-09 04:01:00,
2016-02-08 23:06:00,27.5,26.5,29.66,WNW,290,0.0,0.0,96,0.00,,,0.00,0,HR-IXPWINDi_r2_v1.2.,2016-02-09 04:06:00,
2016-02-08 23:16:00,27.1,26.1,29.65,WNW,290,0.0,0.0,96,0.00,,,0.00,0,HR-IXPWINDi_r2_v1.2.,2016-02-09 04:16:00,
2016-02-08 23:21:00,26.9,25.9,29.66,WNW,290,0.0,0.0,96,0.00,,,0.00,0,HR-IXPWINDi_r2_v1.2.,2016-02-09 04:21:00,
2016-02-08 23:26:00,26.6,25.6,29.66,WNW,290,0.0,0.0,96,0.00,,,0.00,0,HR-IXPWINDi_r2_v1.2.,2016-02-09 04:26:00,
2016-02-08 23:31:00,26.4,25.4,29.66,WNW,290,0.0,0.0,96,0.00,,,0.00,0,HR-IXPWINDi_r2_v1.2.,2016-02-09 04:31:00,
2016-02-08 23:36:00,26.3,25.3,29.66,WNW,290,0.0,0.0,96,0.00,,,0.00,0,HR-IXPWINDi_r2_v1.2.,2016-02-09 04:36:00,